GFSSW_500_rhum_096.txt.gz
RH
52 47 43 41 42 38 34 31 34 37 36 34 31 21 20 21 19 17 15 13 15 18 19 32 38 40 39 40 48 54 52 41 44 49 34 28 32 46 33 24 27 30 34 35 22
53 55 51 45 41 39 37 36 38 41 38 37 34 27 22 20 20 17 16 14 14 16 18 20 28 34 39 46 48 46 44 44 53 52 50 31 36 40 36 22 21 21 24 23 20
62 56 49 43 40 40 40 43 43 43 38 33 32 28 24 23 22 17 19 15 16 16 16 13 13 17 25 38 58 62 35 50 49 51 51 44 28 27 17 16 14 13 14 12 16
69 68 60 55 48 52 53 53 52 43 34 30 27 26 25 24 22 17 15 14 12 11 10 9 10 11 12 14 29 40 53 56 56 63 56 47 34 29 24 15 15 11 10 8 6
78 75 72 68 56 52 58 56 56 42 36 31 27 24 21 21 18 16 14 12 10 9 8 8 7 8 8 13 22 23 37 56 61 61 64 53 46 42 34 23 19 15 9 6 6
71 72 76 80 82 76 69 63 53 41 36 33 30 25 23 21 19 17 14 11 10 9 7 6 5 8 7 9 16 44 47 45 58 64 65 66 58 52 39 24 21 17 11 7 5
76 80 83 80 73 72 84 90 81 44 40 37 33 27 23 20 18 15 12 10 10 7 6 7 9 10 12 14 22 22 35 60 65 65 74 69 63 61 70 29 20 16 12 8 5
85 87 86 79 78 74 75 70 59 53 46 42 35 28 23 21 17 14 12 11 10 8 8 8 7 6 11 12 15 23 32 38 45 88 88 75 44 48 55 96 42 17 11 9 6
93 93 91 86 86 84 81 70 62 58 51 42 36 31 27 23 19 16 15 13 11 10 9 8 6 6 6 10 13 12 15 27 47 79 96 100 64 53 47 64 90 34 13 12 7
100 98 96 99 95 95 92 74 70 62 51 44 39 33 28 23 21 19 18 16 14 11 9 7 8 7 6 10 12 10 6 6 12 41 95 94 70 72 39 42 55 79 14 16 6
100 99 99 99 97 97 94 89 73 62 53 45 38 35 26 24 22 20 18 16 13 11 8 8 8 6 7 7 8 5 5 4 4 42 100 93 79 80 47 30 47 59 40 14 21
98 99 100 99 96 97 96 85 75 62 53 42 39 31 27 25 22 19 18 15 13 11 9 8 7 7 8 6 4 4 4 5 5 13 99 86 76 92 87 26 31 51 14 12 11
97 97 97 98 96 97 95 84 70 51 50 40 38 34 29 24 19 15 12 9 7 6 6 7 6 6 6 5 4 4 3 4 5 33 80 91 75 80 58 64 17 76 16 20 23
98 98 97 99 94 94 89 77 54 40 48 44 39 31 27 19 13 11 9 7 5 5 5 5 5 6 7 97 64 18 35 72 5 14 45 100 77 83 96 68 18 15 24 63 72
99 95 100 98 98 92 82 82 69 56 49 43 36 26 17 13 10 8 8 6 5 5 7 5 12 38 22 22 100 97 91 93 23 14 88 81 95 70 100 94 100 55 24 61 25
98 98 96 98 100 93 84 80 74 48 36 32 23 17 14 12 11 8 6 6 7 31 91 43 11 41 100 44 100 94 100 90 57 88 55 68 96 91 98 99 97 80 70 62 42
98 97 98 99 97 89 90 80 49 33 28 23 18 16 14 10 7 6 6 8 14 71 100 100 100 100 100 58 73 100 92 100 90 61 30 85 100 94 99 98 93 89 46 57 36
99 100 100 98 99 98 59 42 33 30 24 20 17 14 8 7 7 7 9 8 19 100 74 90 31 96 100 66 79 89 98 68 95 99 87 99 89 93 100 93 99 99 76 32 29
100 100 99 100 76 45 39 35 32 26 20 17 13 9 7 6 9 10 9 15 87 75 99 98 66 98 100 88 99 68 94 84 100 94 94 99 100 92 77 99 100 99 74 66 37
100 100 97 69 55 40 38 34 27 22 18 13 8 6 5 5 8 19 16 40 42 55 43 39 92 85 86 99 100 87 82 90 97 99 93 100 99 99 100 89 82 64 64 43 14
100 100 96 96 46 40 34 27 22 17 12 8 6 4 4 4 11 11 27 31 23 50 46 56 94 100 100 94 81 44 89 78 100 94 100 98 100 100 100 99 99 73 32 15 14
99 83 93 68 40 34 28 21 16 10 7 6 4 4 7 31 78 22 28 42 39 24 76 98 62 96 100 70 99 100 72 100 98 99 100 100 100 99 97 100 99 88 36 24 17
90 88 63 42 35 29 22 16 10 8 6 6 9 11 22 37 60 32 41 43 22 36 100 78 78 100 100 82 66 63 60 96 100 99 93 100 100 99 98 97 82 84 28 28 31
85 72 46 39 30 20 13 10 9 8 8 10 13 25 88 99 100 81 33 20 61 74 81 79 66 81 100 96 65 50 70 98 97 100 100 100 100 100 74 84 58 43 28 18 19
88 52 46 35 23 15 10 10 11 9 10 13 17 27 77 82 98 24 26 97 100 96 69 72 98 100 100 94 100 100 97 100 100 100 100 100 99 76 52 58 31 23 19 14 12
60 49 35 25 16 9 12 12 16 21 12 13 20 24 26 45 42 24 92 100 100 86 77 79 100 100 100 100 100 100 100 100 100 97 91 96 88 52 61 49 25 18 13 12 10
46 49 25 16 10 14 12 23 24 46 38 13 24 47 52 88 100 98 100 99 87 64 59 98 100 100 100 100 84 95 100 98 81 82 87 81 71 69 47 27 22 17 13 10 11

GFSSW_500_rhum_102.txt.gz
RH
58 57 60 68 67 66 64 56 51 46 41 37 36 33 32 31 29 28 29 29 27 25 23 20 18 15 16 18 15 14 9 8 10 16 17 34 42 56 50 42 41 45 42 49 47
74 66 65 65 69 68 66 62 57 51 46 42 39 37 33 31 28 27 32 31 30 27 21 23 21 18 17 18 14 13 10 10 11 12 14 23 34 50 52 50 50 47 40 44 48
90 87 70 66 67 69 68 64 61 59 54 48 41 40 37 34 34 38 40 38 32 29 25 22 21 19 19 16 14 12 10 10 9 9 10 11 18 44 54 48 54 54 50 46 39
92 91 92 91 83 76 82 78 76 72 68 61 55 57 54 49 48 48 47 42 36 30 27 24 22 20 18 16 13 12 10 8 8 7 8 7 9 14 40 50 56 55 55 55 50
86 86 92 93 94 91 91 92 90 80 66 60 57 57 59 71 72 67 55 40 34 30 28 24 21 20 18 16 14 14 11 11 10 9 6 6 6 7 10 34 51 58 55 53 51
84 84 83 95 94 96 92 84 80 74 69 62 60 63 68 73 65 70 56 44 41 33 28 25 23 21 18 16 14 13 13 12 10 8 7 6 5 6 6 11 22 59 72 61 56
84 86 83 80 89 96 93 89 82 77 72 71 68 70 72 75 71 92 87 69 47 36 30 26 22 21 19 16 14 12 13 12 11 10 9 8 7 7 6 6 6 26 64 81 67
96 97 91 86 72 77 85 94 89 86 82 82 75 75 85 78 73 72 60 51 44 36 30 26 24 23 21 18 16 16 16 15 14 13 13 10 11 10 6 6 5 6 15 38 68
97 97 95 94 89 76 79 84 87 85 84 88 84 85 94 86 84 77 64 52 44 37 34 30 27 25 23 21 21 20 19 17 13 14 12 9 9 10 7 6 5 4 4 8 24
94 97 92 94 88 76 73 72 82 81 91 89 82 90 92 92 94 91 67 48 44 38 35 33 30 26 23 21 22 19 17 17 17 14 9 8 7 7 6 5 4 3 3 6 5
76 66 93 88 78 62 60 58 79 94 97 97 84 88 93 96 89 73 75 75 48 39 37 34 31 28 24 19 16 15 10 10 16 10 6 6 5 5 5 5 5 6 8 9 10
69 93 78 92 86 71 56 54 72 92 92 95 92 86 96 91 79 64 59 47 43 40 37 34 32 25 19 15 10 6 5 5 3 3 4 4 4 4 6 5 6 9 8 10 19
73 34 44 80 65 74 53 46 72 85 88 100 93 96 95 83 73 62 55 50 44 38 33 30 25 15 11 9 6 4 3 3 4 3 3 6 7 6 5 6 7 8 7 13 40
97 46 19 56 72 84 82 79 89 75 89 99 97 94 91 64 63 58 52 45 38 29 22 20 14 8 6 5 4 4 4 7 6 5 6 18 22 4 6 7 6 7 14 29 64
72 100 44 20 87 68 84 100 100 91 90 94 80 71 69 66 57 45 31 30 25 18 11 11 7 5 4 3 3 4 5 7 12 14 15 14 64 4 6 5 7 23 49 65 78
95 94 89 32 68 86 95 100 100 97 99 84 75 76 75 41 31 27 22 18 12 9 7 7 5 4 3 4 4 6 8 9 35 62 18 36 75 10 17 13 27 80 73 83 79
84 57 77 94 98 94 100 100 100 97 85 76 77 56 41 34 29 22 15 11 9 8 5 4 3 2 8 8 6 12 46 36 69 45 46 95 79 34 28 55 77 94 96 98 99
97 48 60 78 66 97 99 100 98 92 96 100 95 49 35 28 18 13 12 9 5 3 3 2 2 5 9 25 13 38 65 77 81 59 65 84 44 42 45 67 69 99 98 99 98
100 56 89 86 93 100 99 100 97 100 100 94 53 32 20 15 14 10 6 4 3 3 3 3 3 12 20 35 41 54 72 87 74 56 75 90 100 100 95 100 99 95 98 99 97
100 82 99 99 100 100 98 99 98 100 100 86 42 23 15 10 7 5 3 3 4 6 9 16 16 53 84 53 71 48 86 99 62 70 93 100 100 100 100 98 100 98 98 97 96
100 100 100 100 100 100 99 98 100 100 76 32 17 12 8 6 4 3 2 3 6 7 19 16 26 60 67 78 69 87 92 100 72 75 100 100 100 100 100 97 98 98 98 98 100
100 100 100 100 100 100 99 100 92 50 21 16 11 8 5 3 3 3 5 6 11 23 38 63 28 44 71 82 93 100 83 88 81 97 100 100 100 100 100 100 100 96 94 100 100
100 100 100 100 100 100 99 86 44 19 16 10 7 4 3 3 2 6 26 19 28 45 51 49 72 53 54 83 96 100 94 81 100 100 100 100 100 100 100 100 99 100 92 96 91
100 100 100 99 100 100 92 50 22 14 10 6 4 4 4 3 4 10 27 34 42 41 36 52 82 90 97 100 100 100 100 100 100 100 91 99 100 100 100 100 97 99 100 94 90
100 100 99 100 100 92 50 20 14 11 7 5 4 4 4 6 8 22 30 31 45 42 58 85 74 73 91 100 96 78 94 100 89 95 98 100 100 100 100 100 96 98 98 100 92
97 98 100 99 90 42 19 14 12 8 6 6 6 7 11 16 36 76 62 73 77 77 100 100 100 66 66 79 96 99 82 53 100 100 100 100 100 100 100 92 87 85 72 46 28
100 100 100 82 45 22 14 13 10 8 8 9 7 17 19 50 85 79 75 79 73 96 100 100 100 100 76 87 89 78 100 100 99 100 100 99 100 94 87 80 77 67 65 54 32

GFSSW_500_rhum_105.txt.gz
RH
44 49 62 64 62 56 52 57 61 62 60 56 50 45 43 41 40 38 36 34 30 30 27 27 27 26 26 21 18 16 9 8 10 13 11 16 18 39 32 29 51 56 48 38 32
62 62 66 72 72 67 60 56 61 62 62 60 58 54 50 47 45 40 40 36 33 29 28 28 28 30 27 25 19 17 14 12 14 13 10 11 11 19 17 31 48 58 53 51 45
79 71 71 84 78 71 71 71 61 61 64 66 60 55 53 55 57 50 46 45 42 38 38 42 40 35 30 25 23 20 15 16 13 12 11 10 9 10 10 22 46 58 58 55 54
91 77 81 84 81 74 73 77 72 75 68 75 76 71 66 65 61 54 55 54 57 63 62 56 47 41 34 29 24 20 18 16 14 13 12 10 9 8 7 13 44 56 60 57 57
21 60 79 85 88 79 80 76 68 70 76 78 86 76 66 65 61 50 56 57 60 62 67 59 45 37 31 28 24 22 19 17 16 14 11 11 12 12 10 8 22 45 66 61 58
26 30 63 75 78 75 72 77 69 61 68 80 81 78 73 77 58 62 75 72 71 71 73 62 47 43 38 29 26 22 21 17 15 13 12 12 12 10 9 9 8 9 28 66 65
31 12 41 63 71 64 72 82 83 68 65 70 66 69 73 84 62 79 79 77 75 75 91 88 68 54 47 30 24 22 21 19 16 13 14 13 11 12 10 9 8 7 6 8 34
6 47 70 66 68 70 70 73 87 82 66 62 59 53 72 73 77 78 82 89 86 78 72 62 58 46 36 30 26 26 24 22 19 17 16 16 12 14 14 13 12 11 11 8 6
9 18 76 84 83 77 82 70 69 79 72 68 64 63 83 80 85 82 96 100 91 82 74 62 56 48 37 34 31 26 26 24 22 21 20 18 17 13 14 14 12 13 12 10 8
11 10 21 80 70 68 73 81 79 70 65 58 60 77 79 89 90 85 95 96 94 93 94 65 58 57 38 33 33 30 28 26 24 24 22 20 20 16 15 18 17 16 14 11 9
15 21 19 23 52 68 67 65 76 63 56 55 47 51 76 89 84 92 94 90 96 89 84 79 64 50 38 36 34 32 30 28 26 22 21 19 18 15 14 13 12 11 10 9 7
53 96 100 49 61 40 48 86 89 75 70 61 49 47 76 70 81 100 80 83 85 73 68 60 53 42 39 36 34 30 26 24 22 14 9 8 8 8 6 5 4 4 4 3 3
99 99 99 82 60 53 45 41 29 39 32 48 48 51 71 83 79 95 98 91 82 72 60 54 49 44 40 34 27 22 15 11 7 6 5 4 5 6 4 3 2 2 3 4 4
31 70 100 99 70 92 80 42 88 97 68 64 72 62 53 86 100 92 96 94 90 72 63 56 50 38 27 21 15 13 8 7 5 4 4 4 5 4 3 2 3 5 8 7 6
84 46 78 100 95 88 100 68 38 49 92 76 46 63 81 99 98 94 89 85 74 68 57 43 31 25 19 13 8 8 6 5 4 4 4 3 4 2 4 11 44 47 27 13 8
63 90 83 59 45 69 87 98 51 69 77 68 72 84 99 99 94 92 90 75 63 54 39 28 23 14 10 9 6 4 4 3 4 6 6 3 10 11 49 69 76 70 22 9 7
44 91 98 100 91 88 85 87 89 60 81 65 80 97 99 98 100 100 94 62 33 30 25 16 11 9 8 7 4 4 5 6 7 7 6 16 20 23 49 78 74 51 17 8 8
28 77 82 56 95 94 100 90 72 64 69 88 98 99 100 100 96 85 41 26 18 14 13 13 10 5 4 5 4 3 8 10 9 15 29 52 53 73 98 100 69 76 27 16 17
26 42 61 64 84 100 68 92 90 60 93 100 100 100 97 99 86 46 21 16 13 9 6 4 4 4 6 6 10 12 16 60 35 51 42 54 75 99 100 72 68 92 58 49 80
24 65 77 100 100 99 84 95 99 100 100 100 100 100 100 77 40 25 16 10 6 4 3 4 3 7 9 11 23 24 86 76 96 80 47 57 100 100 100 100 83 81 94 90 96
60 47 100 100 97 92 100 98 99 100 100 100 100 96 80 38 16 10 7 4 3 3 4 5 6 37 32 32 47 71 81 80 98 95 82 91 97 100 100 100 100 98 100 99 97
100 100 100 100 100 100 100 100 100 100 100 99 90 38 16 11 9 5 3 3 3 4 5 13 30 52 51 39 76 80 79 100 94 88 63 94 99 100 100 100 100 100 89 97 100
100 99 100 100 100 100 100 100 100 100 94 49 25 13 10 6 4 3 3 3 5 11 21 36 82 47 56 88 71 98 100 99 92 88 99 100 100 100 100 100 100 100 99 82 99
100 100 100 100 100 100 100 99 97 82 39 17 12 8 5 3 3 2 2 5 20 28 22 71 88 87 76 70 96 100 100 87 85 100 100 100 100 100 100 100 100 100 100 99 97
100 100 100 100 100 99 99 99 92 30 14 12 7 5 4 3 4 6 15 22 21 42 94 100 100 100 100 96 100 100 100 100 100 94 100 100 100 100 100 99 98 100 100 98 100
100 100 100 100 100 100 99 74 21 13 11 7 5 4 4 13 21 20 29 50 80 97 100 98 100 98 78 99 100 100 89 92 100 98 100 100 100 100 100 100 100 98 95 97 74
100 100 100 100 100 94 56 24 14 12 9 6 5 5 17 46 43 48 69 78 88 100 100 100 100 99 77 94 99 98 97 100 96 95 100 100 99 99 99 95 94 91 88 66 61

GFSSW_500_rhum_108.txt.gz
RH
46 46 44 43 49 46 45 46 49 59 59 53 52 51 57 61 60 52 48 44 38 38 34 32 31 29 29 26 25 26 23 19 20 21 18 17 15 15 13 10 12 28 17 26 40
67 64 53 64 61 64 62 53 53 58 66 64 61 55 56 58 59 55 54 49 45 41 39 36 33 33 31 33 30 27 24 24 24 23 19 17 16 19 14 12 13 26 23 24 24
27 31 17 28 62 68 63 67 63 64 68 64 64 64 70 63 73 66 57 58 56 50 48 46 45 46 41 40 45 37 31 32 27 24 21 18 16 14 12 12 14 16 31 22 16
4 6 24 15 15 18 21 45 66 66 64 68 62 60 63 77 78 72 75 71 63 56 50 46 44 42 43 47 57 46 43 38 31 24 20 18 15 13 12 11 15 12 22 22 18
4 4 7 5 11 16 18 31 55 63 63 63 61 61 64 69 83 68 71 67 62 57 51 51 48 46 56 61 60 52 43 34 29 23 20 19 18 16 13 11 11 11 12 17 29
8 7 8 6 5 10 5 20 36 51 51 63 60 65 57 77 71 75 74 67 57 51 54 54 56 57 55 65 63 56 50 42 32 26 23 22 18 16 14 11 11 10 9 9 11
8 8 8 9 8 7 5 23 38 59 62 54 57 60 64 69 64 65 61 53 58 57 66 64 57 55 57 70 63 68 65 55 39 32 24 25 25 16 15 14 12 10 10 9 8
29 19 10 11 8 9 8 8 21 60 55 52 49 48 61 66 69 62 61 65 58 67 69 66 70 69 66 69 65 61 58 46 32 27 24 24 22 19 16 16 14 14 13 12 10
23 15 13 12 10 10 12 12 15 53 74 62 54 44 58 54 62 60 61 66 68 71 75 77 81 80 79 78 70 61 57 50 39 31 29 28 26 24 22 20 19 18 16 15 14
13 11 16 13 12 12 16 18 16 19 50 64 63 74 63 60 54 53 66 74 80 81 84 87 78 73 88 89 72 67 61 58 53 40 31 30 32 30 24 23 22 20 20 19 18
23 14 21 26 14 15 21 33 36 28 26 48 57 70 62 55 51 49 51 64 71 72 81 86 88 91 100 92 81 68 65 62 57 50 45 35 32 29 26 22 19 17 14 11 10
13 22 21 28 30 17 40 62 90 79 41 43 51 58 63 64 63 50 47 51 51 61 79 82 86 98 88 73 71 67 59 52 46 38 35 33 33 27 22 16 14 10 8 6 7
11 24 30 46 43 27 83 100 100 98 73 52 45 43 45 48 37 41 52 50 50 92 97 97 91 89 71 65 58 48 46 45 45 39 29 22 23 19 14 12 6 5 5 6 5
10 19 68 98 60 87 98 99 99 88 92 72 63 54 48 55 55 45 63 77 96 100 100 100 98 78 66 54 50 50 42 40 35 26 21 14 15 19 10 7 6 5 4 3 2
20 32 44 61 100 98 92 70 86 100 99 89 73 64 64 71 70 60 55 72 90 94 100 100 96 98 98 66 51 47 36 27 21 13 10 14 10 9 6 6 4 3 3 8 5
22 24 56 49 100 99 98 99 96 87 72 75 70 77 65 69 78 83 82 90 98 98 95 93 97 97 78 64 50 30 22 15 11 9 8 7 6 7 5 4 4 20 54 53 37
21 18 40 95 42 52 77 97 86 74 85 84 68 73 68 73 92 92 95 96 97 91 92 85 85 92 57 35 23 17 13 10 9 6 5 5 5 6 5 13 60 62 92 57 44
22 27 23 19 93 100 66 100 100 91 58 90 96 86 87 95 99 99 100 100 98 94 96 95 73 39 27 16 12 10 8 6 8 6 8 11 11 14 40 69 68 66 92 61 30
22 25 34 96 53 26 84 89 58 69 100 94 77 98 97 100 99 99 100 100 100 92 80 55 42 26 12 8 6 6 8 10 9 10 12 19 53 48 86 100 87 73 74 78 80
85 45 39 30 33 42 71 85 78 82 83 93 85 89 100 96 100 100 100 98 92 66 30 19 13 7 6 5 4 4 10 22 44 38 58 58 56 71 100 100 100 86 84 98 92
94 80 42 65 98 40 28 47 48 85 100 100 100 99 100 98 100 100 98 78 64 23 8 5 4 4 4 5 14 21 59 48 68 75 96 59 69 87 90 92 100 98 100 100 97
53 59 33 39 33 83 100 76 100 100 100 100 100 100 100 100 99 79 35 14 8 6 4 4 3 4 14 27 59 94 97 89 100 100 99 81 69 87 98 98 100 97 100 100 100
40 34 49 72 79 96 98 100 100 100 100 100 100 100 99 77 23 11 8 5 4 3 3 9 33 30 62 96 76 96 95 100 100 100 89 88 84 100 99 100 100 100 99 100 99
100 94 100 88 100 100 100 100 100 100 100 100 99 92 33 13 9 5 4 3 2 4 17 38 65 46 90 89 96 90 99 84 84 90 87 93 100 100 100 100 100 100 100 100 100
90 93 91 97 100 100 100 100 100 100 100 94 48 15 11 7 5 4 4 8 13 32 60 94 100 100 100 85 76 93 100 100 98 90 100 99 100 100 100 100 100 99 100 100 99
100 94 99 100 100 99 100 100 100 100 82 21 14 10 6 4 4 8 15 17 35 82 99 100 100 100 96 65 77 100 100 99 100 100 94 100 100 100 99 100 100 98 100 100 99
100 100 100 100 100 100 100 100 100 81 24 13 10 6 5 5 12 17 35 62 88 100 99 100 100 100 99 100 100 100 100 92 99 99 100 100 100 98 98 96 90 90 94 97 66

GFSSW_500_rhum_111.txt.gz
RH
32 33 34 34 48 40 36 40 40 41 43 48 50 50 51 58 56 51 52 54 52 55 52 45 41 36 35 33 30 28 24 22 27 34 32 29 27 24 19 15 14 14 11 11 12
5 6 8 21 49 28 11 8 29 56 31 38 56 62 57 63 58 60 60 58 58 53 54 52 49 45 41 40 36 34 27 28 32 34 34 34 29 26 22 19 17 17 18 14 12
4 6 4 8 5 4 8 6 7 13 8 19 34 54 65 61 65 59 63 67 66 66 62 55 56 55 50 48 46 43 41 49 42 47 45 42 37 31 25 21 20 17 20 18 14
4 4 4 4 4 3 4 5 4 6 8 10 34 51 53 60 64 54 55 59 67 69 72 72 64 57 51 47 47 43 48 44 47 51 49 45 42 34 31 23 20 16 14 15 13
7 7 7 8 8 8 6 6 6 6 6 4 12 37 46 46 47 53 56 57 57 65 70 64 60 54 49 45 44 42 44 43 44 52 46 43 38 32 26 19 17 14 13 12 12
9 9 11 14 14 10 8 6 5 6 5 6 12 23 33 52 47 50 50 54 56 61 60 55 48 42 35 44 46 44 45 55 55 57 55 50 48 46 32 24 19 17 14 12 11
12 12 13 12 17 20 14 9 9 9 7 6 9 10 22 32 48 50 45 44 51 57 55 53 48 44 39 43 46 57 52 58 60 54 57 55 52 52 47 29 19 14 12 12 11
15 16 11 11 19 19 10 9 8 8 9 8 10 11 36 32 34 37 39 36 40 41 44 50 48 44 40 40 35 55 58 60 60 57 55 53 42 41 34 27 22 17 15 14 13
16 30 17 12 12 17 12 10 10 10 11 11 12 13 18 33 37 40 40 41 44 42 40 37 37 38 44 60 61 61 60 60 66 66 65 60 46 44 37 32 28 23 20 17 16
18 17 21 15 15 14 12 11 13 12 12 15 15 17 21 21 27 44 62 59 53 50 48 49 48 48 56 63 55 62 62 65 68 68 65 60 48 52 48 38 33 30 25 24 23
18 17 16 14 12 13 12 11 15 17 17 18 18 24 46 37 25 28 55 62 55 48 52 50 51 41 45 45 53 58 61 64 80 84 70 65 38 53 54 51 46 33 30 27 25
16 14 13 13 13 12 12 14 12 21 21 25 23 30 41 53 44 44 54 52 59 62 64 58 51 61 55 60 67 67 65 70 79 78 67 58 38 44 45 44 40 36 31 25 20
13 13 12 11 12 12 14 24 29 75 48 34 37 47 78 78 70 58 45 41 45 62 67 64 70 77 86 86 93 95 93 96 77 70 62 57 47 47 47 45 35 26 20 17 17
8 8 8 8 14 20 20 41 66 99 85 92 92 100 100 98 86 76 74 65 66 71 78 85 90 93 100 100 100 94 100 89 79 68 69 55 53 46 47 41 32 19 15 14 12
5 5 5 8 11 14 38 100 100 100 96 87 74 90 86 81 83 70 68 74 82 82 78 81 73 76 92 100 99 96 98 93 94 99 89 70 59 37 33 25 19 15 12 10 8
8 10 8 8 22 37 44 55 91 96 68 80 81 75 64 64 62 55 67 80 80 82 81 84 94 96 88 98 100 99 98 99 98 100 88 43 23 29 21 15 12 12 8 5 4
19 36 16 25 45 28 28 30 60 81 93 90 84 80 92 91 85 88 85 87 87 87 90 96 94 86 98 100 99 97 97 98 78 33 29 20 16 12 12 7 6 4 4 4 15
6 9 24 14 21 29 23 50 100 83 51 75 84 100 94 90 92 99 95 93 94 97 96 93 98 100 100 100 100 96 87 44 22 18 14 9 7 6 5 5 19 24 41 33 44
4 10 19 20 21 26 32 30 24 26 57 68 84 99 75 70 69 93 100 100 100 100 100 98 97 100 100 96 88 55 22 16 10 7 6 6 7 5 7 64 84 72 61 53 52
4 16 33 27 27 92 83 23 29 99 56 50 100 95 100 98 92 100 96 92 100 99 98 99 97 85 59 48 26 10 7 6 6 9 13 30 25 24 60 90 94 70 72 84 71
11 52 28 26 78 72 42 32 67 45 38 55 92 100 100 100 100 100 99 96 88 92 96 95 89 44 20 7 5 4 7 16 20 38 77 74 75 52 85 97 97 63 75 98 88
18 30 22 28 70 96 41 37 50 100 88 64 72 75 75 99 99 100 100 96 84 69 26 12 8 5 6 6 12 27 59 52 62 93 100 99 87 94 100 94 74 83 87 98 94
24 35 33 24 59 74 59 42 60 59 96 100 86 96 100 100 98 99 95 52 14 9 6 4 6 20 31 63 51 84 85 94 83 93 100 95 99 100 100 100 100 100 100 96 98
29 32 26 21 45 80 41 69 77 75 100 100 100 100 100 100 96 56 15 8 5 4 4 7 24 37 39 66 87 78 58 52 57 91 100 98 100 100 100 100 100 100 99 100 100
27 35 23 32 64 67 96 100 96 97 100 99 100 99 99 90 30 10 6 5 10 11 14 37 65 65 55 58 58 69 90 81 99 99 100 99 100 100 100 100 100 100 98 100 97
34 47 29 96 100 96 100 99 100 100 100 100 98 92 61 14 8 5 5 11 15 31 72 97 100 99 52 45 51 95 100 100 100 97 98 100 100 100 100 100 100 95 100 90 98
89 93 82 100 100 100 100 100 100 100 100 97 71 60 12 7 5 8 14 21 34 75 99 100 98 75 60 76 73 100 100 99 100 100 100 100 100 100 99 99 87 82 74 94 85

GFSSW_500_rhum_117.txt.gz
RH
12 15 18 22 22 21 24 26 27 27 27 35 35 11 9 21 26 15 14 23 34 45 50 56 53 49 46 46 47 51 50 45 44 41 39 43 37 39 34 36 35 34 32 29 24
14 16 21 25 26 23 22 17 12 8 13 21 11 8 6 15 7 6 11 20 34 48 52 55 58 54 47 48 50 56 56 60 56 48 50 46 47 50 46 43 46 44 42 36 30
19 22 31 29 22 10 4 4 4 5 8 4 4 6 4 4 5 5 6 15 35 41 44 44 46 53 51 52 56 61 59 78 65 56 57 54 52 52 52 46 50 50 44 45 41
30 34 34 26 6 4 3 4 4 7 5 5 5 5 5 5 5 6 5 5 8 14 26 35 42 46 51 46 48 50 64 65 67 63 61 61 55 45 54 51 53 48 45 45 41
44 45 35 10 4 4 4 4 5 5 7 7 7 6 5 5 6 6 6 6 6 6 7 9 17 25 36 42 41 41 49 60 58 55 50 45 41 37 43 57 56 52 52 48 41
51 36 12 5 5 5 6 7 8 8 9 8 10 8 8 8 7 8 7 6 6 7 9 9 11 12 16 26 32 37 36 36 36 46 47 45 42 53 53 47 53 50 52 50 44
65 12 7 6 6 7 9 9 10 9 10 8 9 10 11 10 9 9 9 10 11 11 10 11 15 15 14 14 13 14 12 11 18 20 22 23 28 40 29 34 59 61 58 55 56
50 36 9 8 7 7 10 12 13 19 16 11 9 11 12 11 11 11 11 12 14 17 18 18 18 18 16 15 14 15 14 16 26 12 14 15 26 50 21 20 51 51 50 47 45
18 23 14 10 9 8 8 11 13 19 18 15 14 16 13 15 14 14 14 14 15 18 21 20 20 20 19 18 18 25 27 34 29 13 13 16 23 43 38 32 34 62 62 59 54
26 32 25 16 13 12 11 11 15 23 34 35 26 32 22 14 14 13 13 15 22 25 24 24 24 24 23 26 26 45 39 39 32 47 35 24 32 48 53 52 45 62 67 64 61
25 37 32 38 36 46 32 30 21 30 43 39 40 36 24 23 18 15 18 22 26 29 29 32 31 31 35 33 29 36 56 52 50 53 48 42 43 52 55 53 45 52 58 71 72
56 67 72 57 37 24 35 35 49 38 35 43 47 44 46 31 14 19 22 26 33 39 40 38 29 44 43 43 40 60 68 69 54 45 40 37 26 36 57 65 61 51 54 54 58
62 60 61 76 66 39 26 35 44 41 50 43 52 54 38 25 23 25 27 37 50 46 63 58 74 53 40 62 71 63 68 62 58 52 52 49 33 70 74 68 68 56 58 64 69
90 78 65 72 86 59 49 39 33 33 44 48 42 35 29 29 32 34 44 53 55 66 74 61 79 82 100 78 91 82 79 62 59 68 68 78 73 62 91 92 86 52 39 55 60
83 88 94 99 92 100 97 97 76 57 54 53 40 35 33 38 41 42 64 65 70 73 61 58 55 45 71 89 86 74 75 78 86 82 85 48 100 57 90 100 100 50 51 69 65
65 58 45 81 90 83 84 63 69 49 53 59 49 43 48 50 57 57 68 92 82 63 56 47 85 69 76 75 82 88 87 84 98 100 91 69 98 54 90 67 100 80 66 61 58
50 72 51 32 46 68 28 67 28 30 46 58 56 45 43 42 48 46 34 46 39 44 58 74 80 83 83 96 92 85 99 91 91 100 80 92 100 98 63 58 63 36 26 35 29
96 74 52 28 60 76 73 42 41 68 61 46 38 46 52 42 29 27 34 73 78 55 49 80 100 95 72 77 88 98 91 95 95 100 100 100 83 100 59 49 42 30 21 15 11
20 38 49 22 17 34 34 16 47 29 23 25 20 31 57 20 30 21 57 100 73 55 79 100 99 83 81 76 82 94 93 100 97 97 95 81 73 82 52 26 16 10 6 4 4
6 11 9 42 21 12 80 18 12 15 15 12 8 18 32 29 21 43 43 36 54 81 98 100 99 100 81 71 88 92 100 98 81 66 60 75 100 100 50 51 29 29 17 18 51
5 10 59 58 31 34 16 8 11 11 11 7 10 24 22 67 55 78 65 58 59 49 62 88 76 97 72 91 88 64 46 32 16 11 24 86 100 100 100 98 87 70 69 82 78
7 25 14 34 97 56 31 15 8 7 5 6 30 62 48 100 75 62 52 94 72 98 98 89 88 92 92 85 55 7 6 7 6 16 83 100 98 76 95 100 100 97 100 94 97
4 13 24 99 58 30 35 18 10 4 4 20 26 37 88 98 82 80 72 86 99 100 100 94 84 67 35 9 11 23 17 24 30 84 85 98 84 100 100 100 100 100 100 100 100
5 19 16 37 41 40 44 16 7 5 10 24 28 56 100 89 58 55 76 82 98 100 100 84 28 6 8 34 36 72 33 48 65 62 85 96 99 100 100 100 100 95 100 100 100
6 11 9 15 19 95 42 26 7 7 30 23 28 46 77 85 99 95 94 90 100 99 50 8 8 10 16 21 23 35 60 78 82 91 88 100 100 100 100 100 100 100 100 100 100
6 4 11 20 98 42 15 12 7 16 31 34 53 75 98 100 96 100 100 100 83 15 6 9 15 34 38 45 45 36 62 79 73 74 97 100 100 100 100 100 100 100 100 100 100
4 5 10 12 25 21 24 18 33 26 44 53 91 100 100 100 96 100 98 42 8 6 8 14 37 50 64 61 62 48 56 74 93 100 100 100 100 100 100 99 100 100 100 100 100

GFSSW_500_rhum_123.txt.gz
RH
7 7 6 7 6 6 7 7 8 8 11 14 17 18 18 18 19 17 14 14 12 17 11 9 22 34 40 42 48 49 43 48 53 55 47 46 48 47 49 54 55 46 47 46 45
6 6 6 6 7 7 7 8 8 9 10 12 18 20 20 18 13 11 8 8 4 6 6 8 20 38 47 44 48 46 44 49 50 51 50 54 55 60 63 62 61 65 64 65 61
6 6 6 6 7 7 8 9 10 11 12 15 19 24 19 13 7 6 5 6 5 4 6 7 7 11 22 39 38 36 39 47 55 50 44 39 50 62 74 72 63 63 67 69 69
7 8 8 8 9 10 11 12 12 13 18 19 25 26 14 4 7 7 8 8 5 5 6 6 6 7 10 16 26 22 25 28 38 39 38 32 37 46 37 21 26 32 44 54 53
12 12 14 15 16 16 17 16 18 17 22 29 31 20 8 5 5 5 6 7 6 8 6 7 6 8 10 11 11 11 13 14 13 14 14 12 12 11 11 13 12 11 11 13 16
83 41 35 26 53 76 81 73 56 34 37 37 30 11 6 4 5 6 8 14 9 10 10 7 8 8 11 10 12 15 15 17 16 16 15 12 12 12 16 14 15 14 12 11 9
91 68 80 94 94 97 88 96 96 68 51 36 15 7 6 6 7 7 8 12 11 10 10 24 12 11 11 13 14 17 17 18 20 19 17 15 14 15 20 16 16 17 18 15 15
98 93 97 96 98 97 98 94 87 64 38 24 10 6 7 8 9 9 11 10 11 14 17 13 13 15 35 29 15 14 18 14 20 20 19 17 14 16 16 14 13 13 17 27 38
97 84 98 96 97 96 96 98 88 73 16 10 8 7 9 10 11 12 16 21 21 16 18 18 15 16 18 14 15 19 32 25 26 29 23 20 17 18 20 18 16 19 26 57 75
96 98 97 98 88 95 97 96 83 92 70 18 15 22 13 9 8 11 12 18 27 30 31 32 30 32 34 28 23 25 27 29 30 44 29 23 17 18 28 19 25 32 93 94 88
68 91 98 90 87 73 52 56 57 61 83 63 45 32 22 28 10 15 20 13 19 17 24 28 32 37 39 28 28 30 31 29 28 32 49 40 19 23 36 29 54 98 98 86 75
53 56 42 31 48 51 46 37 28 39 47 46 29 38 42 44 38 32 32 31 32 35 37 37 34 40 37 29 31 32 33 33 32 44 48 30 22 30 38 68 100 89 87 76 68
26 24 21 22 22 21 30 42 31 28 45 42 39 35 38 44 43 42 36 34 34 35 36 36 37 36 31 32 33 33 36 41 38 39 31 27 13 15 13 58 95 76 62 64 63
52 46 44 44 34 32 41 44 50 57 55 46 42 34 41 42 37 42 46 50 46 48 46 40 40 38 38 42 54 32 59 50 36 28 30 25 30 19 37 75 84 87 77 65 59
75 77 66 64 60 62 54 55 54 59 64 62 49 45 46 55 56 50 63 64 55 50 48 44 46 42 34 41 54 32 38 45 43 32 34 6 91 85 76 82 69 51 54 63 82
51 49 49 42 47 51 58 70 78 91 70 64 59 58 56 62 62 53 55 52 50 47 46 44 41 33 27 23 30 17 19 26 38 46 47 32 99 90 85 63 50 45 45 58 60
91 81 75 72 72 65 61 57 47 52 45 47 49 45 45 51 57 54 52 55 57 52 44 36 27 23 20 13 12 26 55 46 36 48 64 80 91 100 73 64 53 58 69 69 68
65 77 93 95 94 78 59 58 43 51 53 45 39 52 49 50 51 61 54 50 44 31 24 20 14 17 13 12 10 10 48 78 83 68 68 75 77 92 75 61 78 88 98 100 96
32 37 44 47 49 56 77 98 68 57 64 41 21 49 50 52 66 55 41 33 27 23 19 14 10 14 20 39 32 39 42 90 100 82 78 55 74 79 54 63 72 80 79 82 79
20 21 24 21 32 49 63 71 54 60 76 65 46 73 78 61 61 41 27 22 18 17 10 10 9 25 45 35 55 73 90 74 97 93 72 53 94 98 91 100 100 100 100 95 84
12 12 15 14 39 26 58 58 62 78 86 64 82 92 72 61 35 23 16 14 10 10 8 10 25 44 46 43 80 98 82 87 94 94 81 62 68 83 90 76 85 86 100 100 100
8 8 10 10 15 34 38 58 80 63 63 59 47 34 38 27 43 24 18 26 11 6 9 18 53 38 47 44 63 82 82 98 95 71 55 53 50 53 44 51 97 100 93 76 73
8 8 7 8 19 16 11 25 46 80 73 44 50 52 54 96 28 12 57 32 8 11 14 29 76 66 37 47 70 74 79 75 59 53 61 43 27 74 75 96 100 98 90 82 84
9 10 9 8 7 7 11 21 17 75 88 67 75 99 100 76 25 11 29 25 42 30 21 64 67 57 71 79 77 78 64 29 49 67 82 58 53 70 78 88 84 85 99 98 100
15 14 10 7 6 6 8 11 18 32 36 100 98 83 62 46 32 17 16 26 39 22 33 56 71 91 80 84 67 32 10 12 67 100 53 61 88 82 81 87 91 100 99 100 100
26 23 12 10 7 7 6 5 6 11 41 76 91 64 42 40 28 20 44 34 24 40 96 92 90 86 84 60 26 8 23 29 45 49 34 61 68 75 85 99 100 100 100 100 100
38 31 24 13 9 7 6 5 5 9 32 57 83 66 60 38 28 14 32 42 31 65 88 98 97 93 52 15 8 25 64 74 74 59 57 80 99 89 100 100 100 100 100 100 100

GFSSW_500_rhum_129.txt.gz
RH
15 14 13 13 13 12 11 10 9 8 8 7 6 6 6 6 6 6 7 8 9 12 16 16 15 11 12 6 6 13 25 37 47 56 59 55 53 55 55 56 54 56 54 53 53
13 13 12 12 11 11 10 8 7 7 7 6 6 6 6 6 6 7 7 8 8 11 12 14 12 12 15 8 6 9 24 45 44 47 57 57 56 59 62 63 68 58 50 49 43
11 10 10 9 8 8 7 6 6 6 6 5 5 6 6 6 7 8 8 10 12 12 13 11 8 10 14 17 8 8 13 19 37 45 43 53 60 59 63 80 70 52 53 51 58
6 6 6 6 6 5 6 6 6 5 6 6 6 7 7 8 10 11 11 13 15 16 13 7 6 8 11 14 7 7 7 12 21 24 31 40 46 47 47 44 41 43 45 34 21
10 10 10 11 14 9 8 9 9 8 10 8 8 10 14 23 30 27 16 18 17 15 9 6 6 6 7 11 10 7 8 10 14 15 17 18 18 17 18 17 15 14 14 13 12
62 36 18 40 49 15 18 37 38 28 22 25 19 39 54 54 54 48 25 19 16 12 8 6 7 9 10 11 15 15 9 13 20 18 20 19 15 16 18 17 17 18 16 16 16
86 90 87 82 74 69 68 67 68 68 55 55 46 50 61 59 50 39 26 22 18 11 8 7 7 10 13 12 12 18 25 29 27 25 27 32 35 36 34 29 26 27 30 31 31
96 90 90 96 89 77 78 76 70 68 59 62 77 76 69 56 56 43 31 20 15 8 7 7 8 9 10 11 12 15 17 16 17 21 24 23 24 24 23 24 23 21 19 21 24
97 95 94 95 97 84 84 73 83 73 62 68 82 89 72 53 45 35 26 15 14 10 9 16 13 13 16 17 18 18 18 21 22 22 22 22 25 28 30 32 33 31 28 27 28
96 98 98 96 97 85 78 93 89 95 85 93 88 91 86 74 72 54 27 22 36 31 14 37 20 11 12 12 15 19 24 20 22 30 30 30 30 33 34 32 29 27 26 26 27
96 96 90 98 100 92 99 98 94 84 80 100 89 97 97 93 82 66 64 72 75 53 60 58 27 28 22 21 26 28 28 25 27 30 28 34 36 36 34 31 31 32 34 28 25
97 100 100 70 86 85 86 92 82 85 93 100 88 80 87 86 73 52 43 44 49 41 38 37 37 41 36 35 35 33 30 31 31 33 32 35 35 33 32 34 36 41 49 51 39
87 92 69 67 59 68 74 82 77 82 77 92 74 56 56 66 53 38 36 40 39 41 42 39 38 36 33 33 35 36 36 37 35 36 36 37 37 35 34 33 29 29 29 29 26
53 61 50 69 51 56 61 61 57 55 45 53 46 33 33 30 27 32 34 39 38 44 44 32 44 43 42 43 46 37 44 42 40 37 34 34 30 28 25 22 20 20 19 17 16
49 50 48 44 50 69 68 59 60 61 41 31 27 28 30 35 37 37 40 42 44 47 45 42 44 44 43 45 44 42 41 40 39 39 36 31 26 21 19 16 13 11 11 10 13
63 62 60 56 50 46 55 61 68 62 44 35 29 35 39 45 46 47 46 44 43 41 39 42 45 42 43 48 50 48 46 44 38 32 29 22 19 15 13 12 11 13 19 31 55
93 90 87 82 80 75 70 60 50 45 38 38 37 38 43 43 42 43 41 45 48 48 43 41 42 48 50 49 50 46 40 34 30 23 19 17 14 12 10 10 12 24 28 33 40
100 99 97 97 93 94 93 82 82 58 62 61 52 47 45 45 46 50 51 54 58 57 52 49 46 53 53 48 40 33 25 20 20 17 15 14 13 12 15 18 38 53 58 59 53
98 100 97 100 96 98 93 85 73 60 65 84 77 69 64 62 60 60 61 60 61 59 55 56 55 56 50 33 27 24 23 24 41 28 29 16 15 14 15 30 49 60 67 61 56
76 87 89 82 87 97 92 95 76 63 68 76 91 82 79 78 73 64 66 60 58 54 61 65 66 54 40 28 22 25 29 37 56 73 50 15 16 19 21 51 71 63 61 56 57
36 37 44 37 42 63 89 94 65 60 65 66 75 84 80 78 79 85 84 70 62 64 74 72 64 45 37 34 24 20 18 32 74 69 92 54 21 37 55 71 62 58 40 29 28
28 29 27 28 26 28 28 36 45 56 52 54 59 70 76 69 66 63 58 66 64 67 75 68 46 38 33 25 20 22 23 27 64 48 74 73 23 61 81 68 64 41 24 34 38
14 16 19 20 24 28 25 24 25 28 44 45 45 66 67 70 73 75 75 79 84 80 81 45 39 41 31 27 22 29 24 29 57 62 46 84 54 68 38 39 38 31 50 52 58
11 10 10 12 13 13 14 15 16 18 20 22 33 45 58 68 77 69 87 83 77 68 52 54 56 41 23 16 16 18 24 50 91 68 74 70 55 27 21 32 32 47 73 71 83
12 10 8 8 6 6 8 8 9 9 12 16 17 20 51 76 85 94 77 88 71 66 63 76 64 47 26 13 15 14 20 73 91 85 72 56 26 21 33 53 59 69 73 85 98
11 9 8 8 7 9 8 7 6 7 7 8 11 15 88 38 76 95 83 84 65 74 100 96 89 69 35 20 23 15 39 93 90 94 69 20 21 37 45 55 72 80 87 100 99
20 13 9 9 8 8 7 7 8 8 8 7 9 25 22 21 70 70 95 99 100 100 100 87 66 48 20 13 15 34 92 83 81 38 18 30 38 49 61 72 67 74 88 93 94

GFSSW_500_rhum_135.txt.gz
RH
20 20 19 20 20 19 19 19 18 18 17 16 16 15 15 15 12 11 10 8 7 6 6 6 6 6 7 9 11 12 12 15 17 16 11 16 29 36 41 45 48 51 51 46 43
18 18 18 18 18 18 17 17 16 16 15 14 13 13 13 12 11 9 8 6 6 6 6 6 6 7 7 10 13 13 11 12 16 12 9 20 32 40 39 41 50 51 44 46 48
16 16 15 15 15 15 15 14 14 13 12 11 9 7 6 6 5 5 5 6 6 7 7 7 8 9 9 9 13 12 9 11 14 15 10 7 9 22 36 45 39 39 38 42 44
12 12 13 13 12 12 11 9 7 6 6 6 6 12 20 15 8 7 7 7 7 7 8 17 26 25 14 12 12 12 8 9 11 12 10 8 9 13 16 14 19 20 22 20 19
6 6 6 6 6 6 6 7 7 8 17 21 12 31 38 37 25 18 22 20 15 14 21 34 40 28 15 12 13 8 8 8 9 10 11 10 11 13 12 13 17 29 31 30 28
13 11 10 11 10 11 10 11 11 20 62 61 59 58 61 51 47 44 41 46 31 37 35 42 30 18 15 18 17 8 8 9 11 12 12 13 14 18 21 22 25 26 25 25 26
15 14 13 16 20 25 27 45 40 42 63 70 59 63 67 55 60 55 50 47 44 48 34 28 22 21 18 22 26 23 10 11 12 12 12 14 15 16 18 19 19 21 21 22 22
64 57 52 58 59 52 61 55 59 69 68 73 70 63 69 65 62 67 65 61 54 48 41 36 32 24 22 21 30 34 20 14 14 11 11 13 18 20 19 19 22 22 19 17 20
94 94 89 82 84 81 80 68 76 75 77 82 79 76 91 76 64 70 66 63 56 49 45 49 30 28 23 29 47 44 28 26 26 16 13 13 13 14 15 21 27 26 24 22 22
94 98 100 99 96 86 77 80 84 75 77 91 76 77 86 84 77 76 82 77 71 49 53 59 63 60 38 42 46 44 37 41 39 24 22 18 18 21 26 26 24 26 26 26 26
100 97 98 99 89 86 75 83 76 68 76 90 78 80 79 79 84 82 82 88 89 82 74 73 86 79 67 44 39 37 32 31 32 33 28 31 26 24 21 24 27 27 28 30 30
99 99 100 97 91 84 86 76 82 86 67 70 73 70 74 77 75 85 85 80 92 96 82 64 67 66 42 37 35 32 32 36 33 31 23 22 22 22 23 25 28 31 35 37 36
97 99 96 93 97 97 100 86 91 86 73 60 84 74 84 68 71 87 76 73 85 98 69 49 39 37 33 31 33 32 32 30 22 22 21 16 14 17 22 26 29 33 36 37 36
100 98 99 98 80 100 99 99 95 89 86 57 80 61 60 61 56 70 60 63 68 83 61 45 35 31 31 32 33 30 32 25 23 22 20 19 16 16 22 30 36 40 38 36 33
98 100 100 93 87 100 98 92 95 85 74 59 56 63 62 50 40 43 48 39 36 37 34 30 30 30 34 39 40 35 33 32 32 30 24 22 25 16 17 23 34 35 35 33 31
92 96 98 97 97 100 100 98 98 98 60 53 47 51 54 36 31 32 36 37 36 35 36 38 39 42 46 47 44 40 39 40 38 37 28 31 35 17 26 31 35 35 32 28 24
89 87 81 82 87 91 95 97 98 76 52 48 40 40 45 45 44 41 43 46 48 47 47 50 50 51 52 46 46 48 49 49 44 42 40 39 36 28 33 34 33 30 25 23 21
100 99 97 84 69 54 45 44 50 47 48 47 41 42 39 40 44 47 45 44 45 46 48 48 48 47 47 51 55 55 54 57 58 52 45 41 36 36 38 38 34 27 22 18 15
100 100 100 100 100 98 91 77 71 53 44 46 47 47 50 54 56 57 58 63 66 67 62 59 58 58 58 58 60 62 65 66 65 60 56 47 46 43 41 41 28 17 15 14 15
28 82 100 100 100 100 100 93 76 72 64 65 65 64 66 73 75 75 75 72 75 75 74 72 67 64 65 68 69 71 70 68 68 64 58 56 52 45 35 22 18 16 16 19 30
10 17 39 100 100 100 99 82 77 73 79 75 82 87 84 83 87 84 82 85 84 90 96 97 94 80 83 81 79 75 76 80 77 70 57 44 42 30 22 17 18 21 29 47 59
20 18 15 40 100 100 99 81 80 77 80 79 82 85 88 93 94 93 93 100 97 98 96 99 95 87 84 72 74 88 82 82 72 59 49 38 34 25 17 23 29 53 52 59 64
25 17 20 33 92 88 98 98 98 92 89 88 83 83 93 99 100 99 96 99 96 99 98 100 87 80 72 70 80 100 98 90 85 67 49 57 34 18 24 40 44 42 49 62 32
58 18 20 37 62 59 93 100 100 97 99 100 98 98 100 99 98 98 100 98 97 100 100 99 94 91 82 89 95 97 94 68 63 53 80 47 29 16 49 51 51 56 56 27 25
98 29 17 22 32 17 59 98 100 95 100 100 100 100 100 99 100 92 69 72 100 92 77 76 73 82 77 92 95 89 76 78 75 70 100 33 21 28 42 62 60 39 24 24 39
100 85 28 17 25 34 43 76 76 100 98 100 100 100 99 100 100 88 88 81 59 50 54 62 66 74 97 95 98 82 69 63 79 100 74 30 19 47 62 61 22 23 48 66 73
89 97 94 24 18 32 30 29 66 96 100 100 100 99 88 98 91 84 78 67 57 56 42 45 90 100 88 86 84 54 66 100 99 81 34 22 22 50 59 18 26 67 74 86 77

GFSSW_500_rhum_138.txt.gz
RH
20 20 20 20 20 20 20 20 20 20 20 20 19 18 17 17 16 16 15 15 14 10 9 7 6 6 6 7 7 9 10 12 12 14 16 16 12 16 32 42 44 48 50 52 55
20 20 20 20 20 20 20 19 19 19 18 17 16 15 14 14 14 14 12 10 8 7 6 6 6 6 7 8 9 9 14 20 14 12 15 16 12 9 18 33 40 42 50 52 50
17 17 17 17 17 17 16 16 16 16 15 14 14 13 11 10 8 6 6 7 7 6 6 6 7 7 10 12 12 11 13 18 11 11 13 14 9 9 12 17 25 25 30 28 26
11 12 14 15 15 14 15 15 14 14 12 10 7 5 6 6 11 17 28 38 34 13 13 13 11 10 19 28 21 13 12 15 9 12 13 11 11 10 9 13 14 14 17 24 25
8 7 7 7 8 7 6 6 6 6 6 6 6 9 17 28 20 24 36 38 41 40 30 30 20 26 36 32 19 11 12 12 11 14 11 10 11 13 12 12 14 15 20 24 27
16 12 10 8 7 14 16 7 6 8 8 10 10 17 43 47 39 44 45 47 46 42 41 42 29 38 39 24 13 11 13 14 11 10 11 11 12 13 15 17 19 21 21 20 21
27 14 13 14 12 15 19 11 10 14 17 22 28 35 47 51 47 50 50 55 52 52 51 47 40 35 21 17 15 15 25 31 21 13 12 12 12 13 14 16 18 18 19 19 20
65 41 31 32 26 18 14 13 16 27 43 43 50 57 63 56 58 56 60 54 58 58 54 58 36 28 26 22 18 21 25 33 32 23 18 17 17 16 16 16 17 18 18 18 22
95 89 80 77 71 66 57 46 38 53 71 64 62 61 71 66 62 66 66 57 61 61 51 49 41 43 35 32 38 24 24 44 45 34 33 34 30 22 17 16 16 17 19 25 22
97 99 97 96 98 91 87 78 68 68 78 77 70 78 73 72 68 70 70 65 66 62 59 48 51 55 52 57 59 54 36 47 43 30 26 28 29 20 25 26 28 27 25 21 21
99 93 100 96 90 98 84 80 72 69 79 69 77 79 78 78 77 75 78 74 73 68 65 66 63 66 63 72 74 68 52 44 36 24 22 22 19 18 17 18 19 20 23 23 20
100 100 98 94 95 81 88 80 85 80 68 68 75 81 79 77 72 81 80 75 76 73 78 71 74 76 68 56 46 53 40 33 28 25 20 20 19 18 18 17 20 21 23 24 23
100 100 98 93 81 84 99 90 96 86 76 60 61 64 85 75 75 74 74 69 75 76 75 70 63 86 68 48 34 30 31 28 28 25 26 19 19 19 19 21 22 26 27 28 29
93 99 94 98 96 99 98 100 97 99 77 52 76 63 69 75 65 86 71 77 70 78 65 65 82 84 56 43 35 30 29 27 27 28 32 17 20 23 22 24 27 30 31 32 34
97 98 100 92 88 99 98 96 97 100 87 68 71 64 68 87 71 80 65 56 50 52 54 57 60 60 39 35 33 30 30 30 34 34 27 27 26 32 30 27 30 33 35 38 39
96 97 98 93 94 100 98 97 98 97 70 63 62 66 60 60 56 61 68 66 50 43 40 46 34 34 31 31 31 34 38 41 39 38 32 35 35 33 37 35 39 40 40 40 39
99 99 98 94 98 100 98 98 100 80 68 64 63 67 63 66 63 57 56 40 34 35 34 38 37 36 36 38 42 47 49 49 41 40 44 41 43 42 41 42 46 46 45 42 42
100 98 98 98 99 100 94 99 96 72 68 66 67 74 70 66 62 56 52 47 45 46 46 47 47 47 48 51 52 51 49 47 50 53 52 46 38 42 38 46 50 48 45 41 34
100 100 98 98 100 100 100 98 86 74 77 75 74 75 72 65 59 52 48 44 45 49 49 46 46 47 49 50 53 53 59 60 61 61 58 55 50 46 47 51 48 40 34 28 22
20 69 100 100 100 100 100 93 77 74 75 76 80 66 51 46 47 47 47 46 51 55 58 59 62 68 73 78 84 88 81 72 73 72 70 60 56 54 50 47 38 31 27 20 14
10 17 29 68 99 100 98 77 85 78 76 78 85 87 97 86 54 53 54 61 68 74 78 84 90 88 92 90 96 95 87 85 84 76 78 77 45 47 46 44 39 28 19 15 13
57 22 13 16 45 76 95 80 88 81 83 89 97 94 87 84 92 98 98 98 100 100 100 100 99 93 96 86 96 98 90 80 78 99 85 92 41 52 50 52 40 22 15 15 35
45 59 46 26 66 73 43 31 68 98 98 94 93 92 96 99 97 100 100 100 100 100 100 100 94 96 90 89 88 80 72 71 86 100 77 96 49 56 69 55 27 19 16 23 55
24 27 48 49 50 36 28 20 33 36 89 96 96 100 100 100 100 100 100 100 100 100 100 100 95 92 91 100 95 75 72 83 100 91 94 66 75 48 66 54 30 20 16 49 54
57 29 26 33 40 33 30 28 50 39 49 92 100 99 100 100 100 100 100 100 100 100 100 100 99 95 87 88 93 100 80 79 82 77 91 62 54 59 52 40 26 14 45 45 22
100 57 40 40 45 42 31 40 24 30 43 75 100 100 100 100 100 100 100 100 100 100 100 96 100 95 72 72 69 67 54 84 84 75 78 69 39 76 49 28 16 35 43 20 47
100 96 68 49 37 72 43 33 25 30 72 98 100 100 100 100 100 100 98 99 100 100 98 96 98 64 57 51 54 45 62 81 70 58 60 56 46 38 24 24 48 57 28 40 63

GFSSW_500_rhum_144.txt.gz
RH
17 20 20 20 21 21 21 21 21 21 21 21 20 20 20 19 19 18 18 17 17 16 15 14 13 13 9 8 6 6 6 8 44 80 46 8 17 17 19 20 27 39 22 21 40
14 15 18 19 19 20 20 21 20 20 20 20 20 20 20 20 18 16 16 15 15 14 13 11 9 7 9 9 6 6 8 24 30 72 14 10 17 16 18 17 18 19 19 26 36
9 11 12 15 17 18 19 20 20 20 20 20 19 19 18 17 16 14 14 13 12 10 8 8 14 27 36 28 16 12 10 9 10 12 13 12 12 14 18 16 18 18 31 18 16
8 7 9 10 12 15 16 17 17 17 17 16 16 16 15 14 13 12 10 8 7 8 7 11 22 25 29 32 31 30 18 16 15 14 16 12 13 11 11 12 12 12 12 15 14
19 17 13 9 8 7 8 8 8 8 9 10 10 9 11 8 7 8 7 8 8 10 15 28 31 33 35 37 38 36 26 21 21 17 11 10 10 10 10 11 10 11 12 13 14
79 57 48 33 23 20 19 18 27 20 18 10 7 6 6 9 15 6 8 10 18 21 24 30 33 46 41 38 45 41 37 30 29 20 9 9 8 11 14 14 12 11 12 13 15
66 75 82 73 63 74 72 69 66 61 37 32 18 14 7 15 25 12 12 15 22 29 32 40 42 48 42 42 42 48 44 38 30 14 10 10 17 28 24 19 17 14 13 13 14
69 63 61 66 67 70 72 71 60 34 41 40 18 15 13 19 25 14 17 32 43 41 36 46 47 45 46 44 51 49 45 33 15 12 13 20 26 32 31 26 22 22 24 23 21
98 75 70 62 59 55 56 55 55 60 55 49 23 19 15 18 19 19 28 41 49 51 51 47 47 48 50 48 56 49 26 14 15 16 20 21 30 38 34 28 26 28 32 28 23
92 96 83 74 64 62 64 55 47 48 48 56 43 31 34 32 29 23 27 40 54 58 56 52 54 55 51 45 44 27 27 16 45 32 35 42 38 46 40 32 23 25 21 21 16
94 90 98 92 88 77 72 60 57 48 42 58 60 61 52 57 53 52 53 60 61 66 58 61 63 59 54 46 34 34 33 37 36 49 51 52 60 51 38 27 23 21 17 16 15
98 98 98 96 95 96 88 78 82 59 42 50 59 46 57 44 50 64 61 61 66 72 68 67 65 63 58 51 43 38 42 51 63 80 72 53 57 56 48 28 22 19 17 15 16
97 98 98 97 97 99 97 98 94 77 57 39 63 57 71 53 43 60 63 64 66 76 77 73 72 71 65 64 64 62 67 71 75 84 66 58 55 58 50 34 25 22 19 20 24
98 98 98 96 95 97 97 97 99 88 73 43 64 52 56 67 43 65 59 70 70 71 89 78 84 75 74 73 72 82 88 83 69 66 67 65 53 56 51 40 27 23 25 25 30
98 97 98 99 99 98 98 98 99 96 94 80 66 44 62 66 72 66 89 74 68 72 86 69 83 80 74 69 78 72 76 79 86 86 74 65 50 45 59 38 26 29 28 29 43
98 100 98 96 98 99 96 100 97 100 90 99 81 62 68 72 73 67 76 94 97 95 79 68 100 67 70 72 73 72 64 70 70 90 70 60 51 37 46 70 49 27 26 39 52
72 92 98 96 95 91 98 99 100 92 82 97 94 89 92 84 86 87 84 100 90 88 79 86 75 78 66 73 70 68 63 57 67 88 67 57 41 69 67 79 81 64 63 43 48
83 93 90 92 97 93 97 100 94 76 91 100 92 86 83 100 99 94 95 97 94 89 95 84 76 73 63 54 65 63 62 60 68 65 53 80 93 89 84 61 70 88 77 62 59
19 54 99 100 100 100 100 100 81 69 92 100 97 96 90 100 98 98 95 97 97 98 97 98 87 83 78 62 56 53 48 52 52 46 39 37 60 91 58 54 64 86 100 83 67
21 14 26 87 100 100 100 99 73 71 79 95 98 88 95 100 97 95 94 92 93 96 100 96 97 97 71 73 56 44 43 43 44 42 44 42 49 77 90 81 71 84 88 89 59
19 12 14 30 85 100 100 86 64 64 92 100 96 97 97 98 99 98 96 100 98 100 99 98 96 90 72 72 65 58 56 54 53 51 49 46 47 66 82 97 99 100 100 82 53
50 22 23 9 20 62 88 56 65 83 100 100 100 100 99 96 100 100 98 98 88 100 92 100 100 96 94 93 84 72 67 56 54 54 56 69 71 93 88 89 98 81 71 64 43
99 84 46 27 15 12 23 32 51 82 98 98 100 100 100 100 100 99 98 99 96 90 99 100 97 100 97 88 87 79 76 80 86 95 86 99 74 83 93 90 72 61 55 62 30
100 100 97 99 87 48 13 9 13 30 76 86 100 100 100 98 98 97 100 100 100 100 88 99 99 100 98 97 93 90 97 97 100 100 91 78 88 82 80 74 58 46 44 52 40
100 100 100 82 92 88 51 25 13 14 22 57 77 56 85 99 100 100 100 90 99 100 100 100 96 100 97 94 94 100 98 90 99 95 100 70 95 71 73 49 46 40 36 30 37
100 100 100 97 78 100 100 79 40 22 22 17 16 29 35 46 89 100 100 99 87 87 100 100 99 100 100 100 99 98 81 100 100 100 100 100 71 66 56 48 41 25 22 36 39
100 100 100 100 95 89 85 72 76 81 73 62 43 48 50 51 96 100 100 100 100 100 100 100 99 94 96 100 100 98 61 95 95 100 100 93 65 47 53 39 22 46 31 26 31

GFSSW_500_rhum_147.txt.gz
RH
13 15 18 20 20 20 20 20 20 20 20 20 20 20 20 20 20 19 20 19 18 17 16 15 15 14 14 12 11 8 6 7 10 12 11 11 20 13 35 24 17 16 18 19 18
12 12 12 14 15 18 18 18 19 20 20 20 20 20 20 20 20 19 19 17 16 15 14 14 13 11 10 8 8 10 8 7 8 8 10 13 11 18 22 28 19 16 18 17 23
10 10 10 12 12 12 13 14 15 16 18 19 19 19 19 18 18 16 16 14 13 13 13 10 10 9 8 18 30 30 27 15 12 10 10 24 23 20 15 14 16 20 19 18 16
14 12 10 9 9 9 9 9 11 13 14 15 15 15 16 13 14 12 13 12 12 12 8 7 8 8 12 13 20 18 29 30 30 13 13 13 18 20 17 13 13 12 14 14 13
47 46 42 37 38 33 11 9 8 8 7 8 7 8 7 8 9 11 11 8 8 6 9 8 10 11 30 31 27 33 39 32 38 21 18 23 23 16 13 11 11 11 13 12 12
69 71 76 79 66 45 23 22 20 18 14 14 13 16 27 21 15 13 10 8 9 6 8 15 21 21 23 27 33 37 42 40 46 33 20 16 17 18 12 9 9 13 17 17 15
85 82 80 76 72 72 77 69 51 51 56 33 30 35 42 40 42 29 20 14 18 9 14 24 31 33 34 42 37 37 43 44 46 47 34 23 20 13 9 11 22 24 22 20 19
85 82 76 74 73 70 63 66 82 77 73 67 58 50 49 47 56 38 25 16 23 12 18 33 42 44 41 38 38 44 36 42 50 45 40 28 17 14 13 27 31 31 30 25 26
90 86 88 77 77 76 68 63 61 58 59 60 54 53 50 47 41 35 18 16 20 15 24 39 39 44 44 40 39 44 48 52 46 35 25 18 15 13 23 31 38 41 35 29 26
99 96 96 99 86 90 74 69 64 60 54 50 46 44 43 40 37 27 19 18 21 19 28 38 45 42 47 42 50 54 46 47 39 24 20 19 17 22 28 46 54 47 40 35 29
95 96 97 93 89 97 95 77 78 66 56 54 49 46 44 42 45 41 42 40 38 36 35 54 47 45 50 55 64 55 44 41 27 28 29 25 31 42 52 59 54 50 44 33 31
98 94 96 97 96 95 94 88 76 70 57 57 60 45 54 63 42 49 58 59 61 60 64 60 46 58 58 61 61 56 49 31 36 38 38 44 56 67 76 76 64 45 37 32 30
98 98 96 94 96 98 98 97 95 85 62 48 58 62 80 72 42 45 49 60 55 58 64 65 63 68 66 65 62 58 42 32 33 52 48 63 68 76 82 58 50 47 43 37 36
97 98 98 96 99 98 98 97 96 96 76 41 68 57 64 90 51 52 58 53 56 53 77 52 69 74 75 70 74 75 82 76 64 69 76 93 79 78 77 68 56 47 40 38 38
96 98 98 97 98 99 97 97 98 97 92 76 48 48 55 68 74 80 86 68 62 67 77 55 76 90 83 78 91 82 95 96 95 90 82 83 95 59 87 85 73 58 48 43 38
65 91 96 97 98 98 98 98 96 100 88 92 70 57 66 77 79 74 87 88 93 92 74 62 76 82 82 80 80 84 89 90 90 94 78 70 94 51 72 77 69 59 53 41 33
29 43 56 88 100 96 97 98 99 97 86 92 90 74 78 83 98 92 80 90 92 89 64 74 72 89 91 67 82 88 92 95 98 92 61 73 78 64 58 62 60 53 42 42 71
37 24 35 51 79 89 100 100 85 81 95 98 94 98 81 100 97 98 98 84 98 94 85 82 69 87 99 70 80 89 93 100 100 89 67 66 64 74 64 58 58 62 53 56 67
33 40 33 22 48 92 100 100 66 65 69 93 91 93 85 94 96 99 96 84 95 97 99 90 76 88 96 89 92 98 91 99 96 92 79 65 66 80 79 64 57 74 82 74 74
35 32 26 31 20 23 77 96 58 48 54 89 97 89 89 92 95 98 97 84 96 98 99 95 97 95 95 96 90 89 94 97 94 85 69 59 60 68 64 73 99 93 90 93 84
61 66 24 44 22 19 36 28 22 28 55 99 100 91 83 84 99 98 93 92 96 99 100 94 99 92 86 94 93 89 100 97 99 86 57 50 52 52 56 64 69 71 82 93 91
100 95 19 56 38 29 20 26 21 24 70 87 100 92 79 96 100 100 95 93 93 99 99 96 96 76 76 87 100 96 100 100 96 82 79 74 75 81 81 72 73 86 99 94 75
100 100 52 96 91 52 35 25 25 22 26 81 99 95 96 96 96 91 97 100 90 100 100 99 100 85 93 86 85 100 93 96 100 100 90 92 81 83 85 96 100 99 99 90 86
100 100 100 100 100 98 77 40 26 22 19 50 91 100 96 81 95 94 100 98 94 94 100 100 98 100 100 92 95 100 100 94 98 100 94 82 84 91 99 100 100 100 86 95 77
100 100 100 100 92 95 91 66 49 23 14 14 70 50 62 68 92 100 100 92 97 94 100 100 98 89 96 98 98 93 90 95 98 99 100 74 70 66 95 100 100 98 89 74 50
100 100 100 100 100 96 100 95 93 63 26 14 12 17 47 76 91 100 100 98 100 100 100 100 100 100 100 99 99 100 67 80 88 98 96 95 62 86 100 100 98 81 68 45 29
100 96 100 100 100 100 99 66 68 74 64 35 22 17 28 43 68 55 65 38 49 85 96 100 93 95 99 100 100 92 48 65 78 84 90 98 69 100 100 98 87 66 40 19 13

GFSSW_500_rhum_150.txt.gz
RH
14 11 10 12 16 17 19 20 20 20 20 19 19 18 18 18 19 19 20 20 20 20 19 17 15 15 15 14 14 13 10 8 7 7 7 7 8 9 9 11 16 20 19 18 18
18 16 14 13 12 12 13 14 15 16 16 17 17 17 15 16 18 17 19 19 19 18 17 15 14 14 14 13 11 10 7 7 7 8 10 8 8 8 11 13 14 16 14 17 18
29 18 16 16 15 14 13 12 12 12 13 12 11 12 12 11 14 15 16 18 17 16 14 13 13 13 11 10 9 12 21 24 27 27 27 25 22 16 12 14 29 41 16 17 16
40 30 18 15 16 13 25 16 11 10 10 10 11 12 12 12 13 13 13 14 14 13 13 10 13 10 8 8 10 16 27 23 29 27 29 29 25 19 14 16 21 28 20 14 14
56 43 27 19 22 39 24 18 17 39 16 11 16 29 23 11 9 9 8 8 9 10 10 12 9 8 7 10 11 14 29 27 33 46 42 40 34 22 17 17 21 14 13 11 12
78 76 70 61 47 43 45 39 39 41 42 45 46 51 24 10 12 15 14 17 13 16 8 9 7 8 10 20 24 24 32 38 40 48 52 46 35 30 26 23 16 11 9 9 14
84 84 86 85 79 76 68 59 66 78 74 68 59 47 43 23 28 33 32 36 44 27 11 14 7 8 17 32 36 36 42 44 43 48 55 48 42 37 28 22 16 11 9 15 24
93 93 92 83 86 82 83 80 79 77 73 69 73 61 50 67 63 54 51 51 55 39 20 16 14 12 21 37 42 44 40 40 56 52 52 49 41 37 29 23 14 10 17 29 36
95 97 98 90 82 80 77 73 74 74 72 64 61 59 60 71 68 65 60 52 57 36 16 16 17 13 23 39 39 44 46 44 50 46 47 43 40 38 32 23 14 14 25 34 42
95 99 96 99 96 88 78 76 77 81 70 65 58 57 58 57 54 49 46 44 43 30 17 16 19 16 34 37 48 56 50 44 46 45 37 35 35 33 28 18 14 16 22 49 60
96 95 96 98 100 93 84 82 83 88 70 65 62 60 57 60 58 48 51 44 40 30 21 19 23 23 32 52 60 57 49 47 47 44 44 42 34 26 20 17 20 27 37 53 60
98 98 99 97 95 94 97 100 90 84 76 73 69 60 74 80 52 47 48 47 53 47 46 41 38 44 50 62 60 57 51 57 56 51 43 34 31 32 28 30 41 47 53 58 55
98 98 98 97 99 98 94 95 96 90 77 58 66 68 89 84 62 56 49 53 52 53 55 57 60 60 63 64 55 67 61 68 56 45 38 36 37 40 44 50 52 50 51 60 71
96 98 97 99 99 98 97 99 100 96 79 44 60 59 68 77 55 66 58 54 52 51 66 48 67 59 60 60 64 64 71 65 44 38 38 48 39 45 52 61 61 50 49 56 57
35 73 94 95 98 99 98 99 99 100 93 78 53 62 66 75 63 74 94 72 63 67 68 51 69 79 72 78 87 82 85 77 74 49 48 56 62 54 67 84 84 68 50 41 49
31 26 26 61 92 95 99 98 99 100 94 91 69 79 70 74 67 61 75 76 73 72 72 70 68 74 63 73 82 92 99 93 88 91 88 95 96 41 76 84 78 57 51 49 51
42 42 43 26 53 82 99 98 98 97 88 96 85 83 74 75 99 76 76 78 75 78 63 82 76 83 94 90 77 75 81 95 97 95 73 89 98 58 64 74 63 59 58 56 57
56 50 44 44 35 32 91 100 92 83 93 100 98 96 96 97 100 95 88 76 80 85 79 81 83 93 88 84 95 87 84 95 88 81 85 95 83 64 60 68 64 63 63 68 70
60 52 45 48 60 43 21 36 78 55 69 79 99 83 82 98 100 100 88 90 95 100 100 90 80 90 94 99 100 94 88 98 100 97 94 85 75 60 64 67 72 71 80 97 100
55 54 55 62 65 60 34 25 30 38 44 58 74 82 80 86 94 93 99 84 89 98 98 94 89 93 89 91 92 98 99 99 95 94 92 67 77 85 81 80 81 90 100 100 98
58 45 50 60 73 74 56 48 25 26 25 38 43 56 55 87 95 92 86 89 87 91 99 98 88 77 86 78 91 100 97 94 98 100 97 95 90 95 96 94 94 97 100 100 98
52 66 52 56 100 76 64 38 34 26 34 26 31 30 38 83 92 82 78 89 89 93 95 97 99 72 77 100 96 96 99 100 97 93 98 96 87 87 88 79 85 94 88 82 83
46 42 41 98 100 90 56 48 45 34 34 29 32 32 42 82 92 85 75 96 99 94 96 97 93 75 70 94 83 83 82 100 100 100 97 96 74 89 91 96 99 97 94 95 96
63 60 51 98 100 100 74 63 62 44 48 32 39 48 37 55 92 98 80 87 94 100 98 100 98 94 86 79 99 91 92 100 100 100 97 82 84 80 93 100 100 86 96 100 100
77 66 64 98 100 100 99 71 68 56 52 49 77 53 50 88 76 94 88 83 80 94 100 100 94 100 100 100 100 100 96 88 85 97 100 82 81 100 100 100 100 91 79 84 87
59 77 89 90 100 100 100 99 100 63 58 54 52 52 58 52 38 77 78 87 84 95 100 98 95 100 98 98 100 98 100 100 100 100 98 90 74 85 100 100 99 100 97 97 100
26 59 72 100 100 100 100 100 88 79 99 72 73 49 58 39 39 84 100 76 77 74 100 100 86 100 98 100 100 96 58 75 73 69 78 82 65 79 87 98 95 98 100 100 100